{"data":{"norad_id":64562,"epoch":"2026-09-21T20:31:24.011328Z","epoch_age_seconds":64710,"freshness":"FRESH","line1":"1 64562U 25135AL  26264.85513902  .00001122  00000+0  11149-3 0  9996","line2":"2 64562  97.7826  18.0235 0001644 103.7066 256.4337 14.93698580 68301","mean_motion":14.9369858,"eccentricity":0.0001644,"inclination_deg":97.7826,"raan_deg":18.0235,"arg_perigee_deg":103.7066,"mean_anomaly_deg":256.4337,"bstar":0.00011149,"rev_number":6830,"period_min":96.404992230762,"perigee_km":585.27019699473,"apogee_km":587.56014174802,"semimajor_km":6964.5521693714,"source":"CELESTRAK","updated_at":"2026-09-22T09:00:29.848168Z"}}